timestamp,surface_pressure_avg,surface_temp_avg,battery_voltage,lat,long
2022-07-16 00:09:00+00:00,365.8297,16.06,12.09,47.84626,-54.09684
2022-07-16 00:19:00+00:00,364.0597,16.03,12.09,47.84626,-54.09684
2022-07-16 00:29:00+00:00,369.8629,16.0,12.09,47.84626,-54.09684
2022-07-16 00:39:00+00:00,380.8046,16.0,12.09,47.84626,-54.09684
2022-07-16 00:49:00+00:00,381.3846,16.09,12.09,47.84626,-54.09684
2022-07-16 00:59:00+00:00,378.6095,16.1,12.09,47.84626,-54.09684
2022-07-16 01:09:00+00:00,383.0413,16.1,12.09,47.84626,-54.09684
2022-07-16 01:19:00+00:00,389.3863,16.1,12.09,47.84626,-54.09684
2022-07-16 01:29:00+00:00,388.1346,16.01,12.09,47.84626,-54.09684
2022-07-16 01:39:00+00:00,386.3796,16.0,12.09,47.84626,-54.09684
2022-07-16 01:49:00+00:00,386.36800000000005,16.13,12.09,47.84626,-54.09684
2022-07-16 01:59:00+00:00,385.5479,16.2,12.09,47.84626,-54.09684
2022-07-16 02:09:00+00:00,382.8763,16.2,12.09,47.84626,-54.09684
2022-07-16 02:19:00+00:00,379.4662,16.27,12.09,47.84626,-54.09684
2022-07-16 02:29:00+00:00,374.3963,16.34,12.09,47.84626,-54.09684
2022-07-16 02:39:00+00:00,373.5146,16.4,12.09,47.84626,-54.09684
2022-07-16 02:49:00+00:00,370.7279,16.68,12.09,47.84626,-54.09684
2022-07-16 02:59:00+00:00,363.9012,17.06,12.09,47.84626,-54.09684
2022-07-16 03:09:00+00:00,360.4463,17.1,12.09,47.84626,-54.09684
2022-07-16 03:19:00+00:00,356.4346,17.1,12.09,47.84626,-54.09684
2022-07-16 03:29:00+00:00,347.4846,17.22,12.09,47.84626,-54.09684
2022-07-16 03:39:00+00:00,335.5413,17.39,12.09,47.84626,-54.09684
2022-07-16 03:49:00+00:00,327.3896,17.4,12.09,47.84626,-54.09684
2022-07-16 03:59:00+00:00,317.033,17.54,12.09,47.84626,-54.09684
2022-07-16 04:09:00+00:00,303.2347,17.6,12.09,47.84626,-54.09684
2022-07-16 04:19:00+00:00,296.4131,17.5,12.09,47.84626,-54.09684
2022-07-16 04:29:00+00:00,291.7631,17.57,12.09,47.84626,-54.09684
2022-07-16 04:39:00+00:00,279.6897,17.86,12.09,47.84626,-54.09684
2022-07-16 04:49:00+00:00,263.4364,17.87,12.09,47.84626,-54.09684
2022-07-16 04:59:00+00:00,254.9447,17.87,12.09,47.84626,-54.09684
2022-07-16 05:09:00+00:00,248.1131,17.93,12.09,47.84626,-54.09684
2022-07-16 05:19:00+00:00,234.4814,18.36,12.09,47.84626,-54.09684
2022-07-16 05:29:00+00:00,219.7997,18.68,12.09,47.84626,-54.09684
2022-07-16 05:39:00+00:00,211.7948,18.8,12.09,47.84626,-54.09684
2022-07-16 05:49:00+00:00,204.8181,18.83,12.09,47.84626,-54.09684
2022-07-16 05:59:00+00:00,197.7181,18.86,12.09,47.84626,-54.09684
2022-07-16 06:09:00+00:00,193.5198,18.8,12.09,47.84626,-54.09684
2022-07-16 06:19:00+00:00,190.8348,18.8,12.09,47.84626,-54.09684
2022-07-16 06:29:00+00:00,184.1581,18.8,12.09,47.84626,-54.09684
2022-07-16 06:39:00+00:00,178.7848,18.8,12.09,47.84626,-54.09684
2022-07-16 06:49:00+00:00,179.2815,18.8,12.09,47.84626,-54.09684
2022-07-16 06:59:00+00:00,179.9548,18.8,12.09,47.84626,-54.09684
2022-07-16 07:09:00+00:00,177.2248,18.84,12.09,47.84626,-54.09684
2022-07-16 07:19:00+00:00,171.4665,18.91,12.01,47.84626,-54.09684
2022-07-16 07:29:00+00:00,171.8015,19.0,12.01,47.84626,-54.09684
2022-07-16 07:39:00+00:00,177.3248,19.0,12.01,47.84626,-54.09684
2022-07-16 07:49:00+00:00,179.6048,19.0,12.01,47.84626,-54.09684
2022-07-16 07:59:00+00:00,181.0598,19.0,12.01,47.84626,-54.09684
2022-07-16 08:09:00+00:00,183.3181,19.0,12.01,47.84626,-54.09684
2022-07-16 08:19:00+00:00,187.2798,19.0,12.01,47.84626,-54.09684
2022-07-16 08:29:00+00:00,189.5931,19.0,12.01,47.84626,-54.09684
2022-07-16 08:39:00+00:00,191.1115,19.0,12.01,47.84626,-54.09684
2022-07-16 08:49:00+00:00,193.6097,19.0,12.01,47.84626,-54.09684
2022-07-16 08:59:00+00:00,193.3864,19.0,12.01,47.84626,-54.09684
2022-07-16 09:09:00+00:00,198.0515,18.98,12.01,47.84626,-54.09684
2022-07-16 09:19:00+00:00,203.5348,18.9,12.01,47.84626,-54.09684
2022-07-16 09:29:00+00:00,204.4732,18.55,12.01,47.84626,-54.09684
2022-07-16 09:39:00+00:00,205.8765,18.1,12.01,47.84626,-54.09684
2022-07-16 09:49:00+00:00,209.2615,17.93,12.01,47.84626,-54.09684
2022-07-16 09:59:00+00:00,216.6081,17.6,12.01,47.84626,-54.09684
2022-07-16 10:09:00+00:00,224.0914,17.5,12.01,47.84626,-54.09684
2022-07-16 10:19:00+00:00,225.8598,17.5,12.09,47.84626,-54.09684
2022-07-16 10:29:00+00:00,230.2631,17.5,12.09,47.84626,-54.09684
2022-07-16 10:39:00+00:00,237.8448,17.58,12.09,47.84626,-54.09684
2022-07-16 10:49:00+00:00,245.4648,17.67,12.09,47.84626,-54.09684
2022-07-16 10:59:00+00:00,251.4048,17.66,12.09,47.84626,-54.09684
2022-07-16 11:09:00+00:00,262.8914,17.69,12.09,47.84626,-54.09684
2022-07-16 11:19:00+00:00,272.4947,17.58,12.17,47.84626,-54.09684
2022-07-16 11:29:00+00:00,277.868,17.34,12.17,47.84626,-54.09684
2022-07-16 11:39:00+00:00,281.1214,17.1,12.17,47.84626,-54.09684
2022-07-16 11:49:00+00:00,291.8647,16.36,12.17,47.84626,-54.09684
2022-07-16 11:59:00+00:00,301.598,16.25,12.17,47.84626,-54.09684
2022-07-16 12:09:00+00:00,308.168,16.25,12.17,47.84626,-54.09684
2022-07-16 12:19:00+00:00,313.4297,15.9,12.25,47.84626,-54.09684
2022-07-16 12:29:00+00:00,322.2646,15.8,12.25,47.84626,-54.09684
2022-07-16 12:39:00+00:00,326.3597,15.81,12.25,47.84626,-54.09684
2022-07-16 12:49:00+00:00,328.8664,15.8,12.25,47.84626,-54.09684
2022-07-16 12:59:00+00:00,332.1097,15.8,12.25,47.84626,-54.09684
2022-07-16 13:09:00+00:00,338.6647,15.79,12.25,47.84626,-54.09684
2022-07-16 13:19:00+00:00,341.99300000000005,15.7,12.33,47.84626,-54.09684
2022-07-16 13:29:00+00:00,341.7195,15.64,12.33,47.84626,-54.09684
2022-07-16 13:39:00+00:00,343.2513,15.69,12.33,47.84626,-54.09684
2022-07-16 13:49:00+00:00,345.1114,15.7,12.33,47.84626,-54.09684
2022-07-16 13:59:00+00:00,345.9981,15.7,12.33,47.84626,-54.09684
2022-07-16 14:09:00+00:00,345.80800000000005,15.7,12.33,47.84626,-54.09684
2022-07-16 14:19:00+00:00,346.2445,15.77,12.41,47.84626,-54.09684
2022-07-16 14:29:00+00:00,346.6295,15.75,12.41,47.84626,-54.09684
2022-07-16 14:39:00+00:00,346.103,15.78,12.41,47.84626,-54.09684
2022-07-16 14:49:00+00:00,345.49300000000005,16.0,12.41,47.84626,-54.09684
2022-07-16 14:59:00+00:00,341.3746,15.9,12.41,47.84626,-54.09684
2022-07-16 15:09:00+00:00,334.7097,15.8,12.41,47.84626,-54.09684
2022-07-16 15:19:00+00:00,330.713,15.8,12.41,47.84626,-54.09684
2022-07-16 15:29:00+00:00,327.6897,15.8,12.41,47.84626,-54.09684
2022-07-16 15:39:00+00:00,321.798,15.8,12.41,47.84626,-54.09684
2022-07-16 15:49:00+00:00,312.5764,15.8,12.41,47.84626,-54.09684
2022-07-16 15:59:00+00:00,306.6497,15.79,12.41,47.84626,-54.09684
2022-07-16 16:09:00+00:00,303.3497,15.8,12.41,47.84626,-54.09684
2022-07-16 16:19:00+00:00,294.7029,15.78,12.41,47.84626,-54.09684
2022-07-16 16:29:00+00:00,283.0914,15.7,12.41,47.84626,-54.09684
2022-07-16 16:39:00+00:00,275.7164,15.73,12.41,47.84626,-54.09684
2022-07-16 16:49:00+00:00,269.1264,15.78,12.41,47.84626,-54.09684
2022-07-16 16:59:00+00:00,255.4181,15.78,12.41,47.84626,-54.09684
2022-07-16 17:09:00+00:00,239.6181,15.76,12.41,47.84626,-54.09684
2022-07-16 17:19:00+00:00,232.4581,15.78,12.33,47.84626,-54.09684
2022-07-16 17:29:00+00:00,223.3281,15.79,12.33,47.84626,-54.09684
2022-07-16 17:39:00+00:00,209.2148,15.8,12.33,47.84626,-54.09684
2022-07-16 17:49:00+00:00,201.0582,15.8,12.33,47.84626,-54.09684
2022-07-16 17:59:00+00:00,200.1881,15.8,12.33,47.84626,-54.09684
2022-07-16 18:09:00+00:00,194.8631,15.8,12.33,47.84626,-54.09684
2022-07-16 18:19:00+00:00,186.0548,15.8,12.25,47.84626,-54.09684
2022-07-16 18:29:00+00:00,182.5065,15.8,12.25,47.84626,-54.09684
2022-07-16 18:39:00+00:00,179.2381,15.84,12.25,47.84626,-54.09684
2022-07-16 18:49:00+00:00,174.5815,15.89,12.25,47.84626,-54.09684
2022-07-16 18:59:00+00:00,172.2015,15.9,12.25,47.84626,-54.09684
2022-07-16 19:09:00+00:00,171.1781,15.9,12.25,47.84626,-54.09684
2022-07-16 19:19:00+00:00,171.9581,15.9,12.17,47.84626,-54.09684
2022-07-16 19:29:00+00:00,172.8849,15.89,12.17,47.84626,-54.09684
2022-07-16 19:39:00+00:00,174.6315,15.8,12.17,47.84626,-54.09684
2022-07-16 19:49:00+00:00,175.8332,15.78,12.17,47.84626,-54.09684
2022-07-16 19:59:00+00:00,178.7498,15.7,12.17,47.84626,-54.09684
2022-07-16 20:09:00+00:00,183.4015,15.7,12.17,47.84626,-54.09684
2022-07-16 20:19:00+00:00,185.6565,15.76,12.17,47.84626,-54.09684
2022-07-16 20:29:00+00:00,186.7731,15.8,12.17,47.84626,-54.09684
2022-07-16 20:39:00+00:00,190.5348,15.87,12.17,47.84626,-54.09684
2022-07-16 20:49:00+00:00,193.7248,16.0,12.17,47.84626,-54.09684
2022-07-16 20:59:00+00:00,196.3848,16.1,12.17,47.84626,-54.09684
2022-07-16 21:09:00+00:00,202.3131,16.14,12.17,47.84626,-54.09684
2022-07-16 21:19:00+00:00,209.6648,16.1,12.17,47.84626,-54.09684
2022-07-16 21:29:00+00:00,212.6731,16.1,12.17,47.84626,-54.09684
2022-07-16 21:39:00+00:00,211.7214,16.1,12.17,47.84626,-54.09684
2022-07-16 21:49:00+00:00,215.4448,16.1,12.17,47.84626,-54.09684
2022-07-16 21:59:00+00:00,222.3548,16.18,12.17,47.84626,-54.09684
2022-07-16 22:09:00+00:00,226.3798,16.31,12.17,47.84626,-54.09684
2022-07-16 22:19:00+00:00,229.7347,16.67,12.09,47.84626,-54.09684
2022-07-16 22:29:00+00:00,236.5197,16.8,12.09,47.84626,-54.09684
2022-07-16 22:39:00+00:00,242.5797,16.7,12.09,47.84626,-54.09684
2022-07-16 22:49:00+00:00,247.9464,16.6,12.09,47.84626,-54.09684
2022-07-16 22:59:00+00:00,255.6247,16.5,12.09,47.84626,-54.09684
2022-07-16 23:09:00+00:00,265.8297,16.4,12.09,47.84626,-54.09684
2022-07-16 23:19:00+00:00,274.2864,16.5,12.09,47.84626,-54.09684
2022-07-16 23:29:00+00:00,281.113,16.17,12.09,47.84626,-54.09684
2022-07-16 23:39:00+00:00,287.9014,16.0,12.09,47.84626,-54.09684
2022-07-16 23:49:00+00:00,296.4747,15.9,12.09,47.84626,-54.09684
2022-07-16 23:59:00+00:00,304.6613,15.92,12.09,47.84626,-54.09684
